DLH06H LFMN-EDDM

Flight info

Callsign DLH06H
Flight time 1h 3m
Altitude 32000
Route BASIP DCT ANAKI DCT TAGIP DCT GUNGO DCT IVKAL T102 NINUR T101 BETOS BETOS1A
Aircraft A319/M-SDE3FGHIRWY/LB1

Departure

Time 2026-05-01 10:04
Airport Nice-Côte d'Azur Airport (LFMN)

Arrival

Time 2026-05-01 11:07
Airport Munich Airport (EDDM)
Time Latitude Longitude Altitude Speed Heading
2026-05-01 09:05 43.66474 7.21497 20 ft 0 kts 315°
2026-05-01 09:45 43.66466 7.21508 21 ft 2 kts 315°
2026-05-01 09:46 43.66455 7.21522 21 ft 2 kts 315°
2026-05-01 09:46 43.66447 7.21532 21 ft 2 kts 315°
2026-05-01 09:46 43.66441 7.21550 21 ft 2 kts 280°
2026-05-01 09:46 43.66442 7.21574 21 ft 2 kts 245°
2026-05-01 09:47 43.66447 7.21587 21 ft 1 kts 224°
2026-05-01 09:47 43.66452 7.21592 21 ft 0 kts 224°
2026-05-01 09:53 43.66450 7.21590 21 ft 1 kts 224°
2026-05-01 09:53 43.66440 7.21576 20 ft 3 kts 224°
2026-05-01 09:54 43.66435 7.21569 20 ft 0 kts 224°
2026-05-01 09:54 43.66430 7.21562 21 ft 2 kts 224°
2026-05-01 09:54 43.66414 7.21541 20 ft 4 kts 224°
2026-05-01 09:54 43.66382 7.21530 20 ft 5 kts 150°
2026-05-01 09:55 43.66358 7.21559 20 ft 4 kts 136°
2026-05-01 09:55 43.66352 7.21566 20 ft 0 kts 135°
2026-05-01 09:55 43.66352 7.21567 20 ft 0 kts 135°
2026-05-01 09:55 43.66346 7.21576 20 ft 2 kts 133°
2026-05-01 09:56 43.66332 7.21596 20 ft 3 kts 133°
2026-05-01 09:56 43.66309 7.21615 21 ft 3 kts 176°
2026-05-01 09:56 43.66283 7.21600 20 ft 4 kts 217°
2026-05-01 09:56 43.66260 7.21569 20 ft 6 kts 224°
2026-05-01 09:57 43.66221 7.21517 20 ft 7 kts 224°
2026-05-01 09:57 43.66179 7.21460 20 ft 9 kts 224°
2026-05-01 09:57 43.66132 7.21396 20 ft 10 kts 224°
2026-05-01 09:57 43.66078 7.21324 20 ft 11 kts 224°
2026-05-01 09:58 43.66020 7.21244 20 ft 12 kts 226°
2026-05-01 09:58 43.65959 7.21156 21 ft 13 kts 226°
2026-05-01 09:58 43.65908 7.21084 20 ft 9 kts 225°
2026-05-01 09:58 43.65859 7.21015 21 ft 10 kts 225°
2026-05-01 09:59 43.65805 7.20941 20 ft 11 kts 224°
2026-05-01 09:59 43.65735 7.20880 21 ft 12 kts 180°
2026-05-01 09:59 43.65678 7.20892 20 ft 7 kts 169°
2026-05-01 09:59 43.65621 7.20907 20 ft 9 kts 169°
2026-05-01 10:00 43.65554 7.20922 20 ft 10 kts 173°
2026-05-01 10:00 43.65478 7.20937 20 ft 11 kts 170°
2026-05-01 10:00 43.65393 7.20959 20 ft 13 kts 172°
2026-05-01 10:00 43.65312 7.20905 20 ft 13 kts 223°
2026-05-01 10:01 43.65263 7.20839 20 ft 8 kts 224°
2026-05-01 10:01 43.65219 7.20779 20 ft 9 kts 224°
2026-05-01 10:01 43.65168 7.20709 20 ft 10 kts 225°
2026-05-01 10:01 43.65113 7.20632 20 ft 11 kts 224°
2026-05-01 10:02 43.65051 7.20548 21 ft 12 kts 226°
2026-05-01 10:02 43.64987 7.20458 20 ft 13 kts 225°
2026-05-01 10:02 43.64916 7.20362 20 ft 14 kts 224°
2026-05-01 10:02 43.64851 7.20282 20 ft 7 kts 206°
2026-05-01 10:03 43.64799 7.20285 21 ft 8 kts 148°
2026-05-01 10:03 43.64768 7.20360 21 ft 9 kts 84°
2026-05-01 10:03 43.64778 7.20391 20 ft 0 kts 46°
2026-05-01 10:03 43.64794 7.20413 21 ft 18 kts 44°
2026-05-01 10:04 43.65092 7.20826 21 ft 101 kts 44°
2026-05-01 10:04 43.65761 7.21737 99 ft 159 kts 49°
2026-05-01 10:04 43.66513 7.22845 845 ft 160 kts 61°
2026-05-01 10:04 43.66641 7.24251 1653 ft 158 kts 109°
2026-05-01 10:05 43.65948 7.25458 2326 ft 171 kts 132°
2026-05-01 10:05 43.65051 7.26637 2890 ft 189 kts 131°
2026-05-01 10:05 43.64064 7.27934 3454 ft 206 kts 131°
2026-05-01 10:05 43.63063 7.29438 4114 ft 215 kts 116°
2026-05-01 10:06 43.62696 7.31401 4858 ft 215 kts 83°
2026-05-01 10:06 43.63041 7.33354 5515 ft 211 kts 68°
2026-05-01 10:06 43.63596 7.35231 6007 ft 216 kts 65°
2026-05-01 10:06 43.64179 7.37148 6937 ft 219 kts 65°
2026-05-01 10:07 43.64749 7.39090 7852 ft 223 kts 66°
2026-05-01 10:07 43.65312 7.41073 8668 ft 229 kts 67°
2026-05-01 10:07 43.65891 7.43158 9511 ft 236 kts 67°
2026-05-01 10:07 43.66470 7.45270 10345 ft 241 kts 68°
2026-05-01 10:08 43.67654 7.49624 12087 ft 248 kts 68°
2026-05-01 10:08 43.68274 7.51944 12649 ft 264 kts 68°
2026-05-01 10:08 43.68930 7.54410 13132 ft 283 kts 69°
2026-05-01 10:09 43.69623 7.57023 13584 ft 301 kts 69°
2026-05-01 10:09 43.70363 7.59818 14003 ft 320 kts 69°
2026-05-01 10:09 43.71153 7.62806 14388 ft 338 kts 69°
2026-05-01 10:09 43.71949 7.65818 14774 ft 354 kts 69°
2026-05-01 10:10 43.72872 7.69062 15501 ft 359 kts 64°
2026-05-01 10:10 43.74065 7.72058 16338 ft 359 kts 56°
2026-05-01 10:10 43.77211 7.77421 17938 ft 360 kts 48°
2026-05-01 10:11 43.78872 7.79996 18699 ft 361 kts 48°
2026-05-01 10:11 43.80528 7.82569 19367 ft 364 kts 48°
2026-05-01 10:11 43.82240 7.85241 20006 ft 367 kts 48°
2026-05-01 10:11 43.83933 7.87895 20624 ft 370 kts 48°
2026-05-01 10:12 43.85628 7.90560 21221 ft 374 kts 48°
2026-05-01 10:12 43.87328 7.93284 21816 ft 376 kts 50°
2026-05-01 10:12 43.90398 7.99245 22933 ft 383 kts 57°
2026-05-01 10:13 43.91752 8.02449 23466 ft 386 kts 59°
2026-05-01 10:13 43.93086 8.05711 23983 ft 389 kts 59°
2026-05-01 10:13 43.94421 8.08990 24457 ft 393 kts 59°
2026-05-01 10:14 43.97133 8.15660 25351 ft 400 kts 59°
2026-05-01 10:14 43.98525 8.19084 25787 ft 404 kts 59°
2026-05-01 10:14 43.99907 8.22485 26205 ft 408 kts 58°
2026-05-01 10:14 44.01317 8.25959 26617 ft 411 kts 58°
2026-05-01 10:15 44.02729 8.29447 27104 ft 412 kts 58°
2026-05-01 10:15 44.04151 8.32962 27592 ft 413 kts 58°
2026-05-01 10:15 44.05574 8.36476 27973 ft 416 kts 58°
2026-05-01 10:15 44.07003 8.40007 28327 ft 420 kts 58°
2026-05-01 10:16 44.08462 8.43618 28685 ft 424 kts 58°
2026-05-01 10:16 44.09917 8.47226 29033 ft 427 kts 58°
2026-05-01 10:16 44.12773 8.54266 29754 ft 431 kts 58°
2026-05-01 10:17 44.14233 8.57883 30216 ft 431 kts 58°
2026-05-01 10:17 44.17196 8.65132 31061 ft 431 kts 56°
2026-05-01 10:17 44.18867 8.68594 31428 ft 431 kts 51°
2026-05-01 10:18 44.22709 8.74906 32122 ft 430 kts 43°
2026-05-01 10:18 44.24911 8.77789 32326 ft 429 kts 38°
2026-05-01 10:19 44.29525 8.82952 32339 ft 425 kts 36°
2026-05-01 10:19 44.34157 8.88008 32342 ft 426 kts 36°
2026-05-01 10:20 44.41130 8.95652 32342 ft 426 kts 37°
2026-05-01 10:20 44.45804 9.00796 32342 ft 426 kts 37°
2026-05-01 10:21 44.52764 9.08477 32342 ft 426 kts 37°
2026-05-01 10:22 44.59745 9.16207 32342 ft 426 kts 37°
2026-05-01 10:23 44.66742 9.23979 32342 ft 426 kts 37°
2026-05-01 10:23 44.73680 9.31712 32361 ft 421 kts 36°
2026-05-01 10:24 44.82865 9.41982 32388 ft 419 kts 37°
2026-05-01 10:25 44.91982 9.52221 32395 ft 419 kts 37°
2026-05-01 10:26 44.96540 9.57359 32395 ft 420 kts 36°
2026-05-01 10:27 45.05379 9.67355 32396 ft 421 kts 37°
2026-05-01 10:28 45.12023 9.74916 32397 ft 421 kts 37°
2026-05-01 10:28 45.19066 9.82901 32397 ft 416 kts 37°
2026-05-01 10:29 45.25819 9.90599 32395 ft 416 kts 37°
2026-05-01 10:30 45.34840 10.00929 32396 ft 418 kts 37°
2026-05-01 10:31 45.43854 10.11300 32397 ft 418 kts 37°
2026-05-01 10:32 45.50618 10.19111 32396 ft 418 kts 37°
2026-05-01 10:33 45.59623 10.29544 32404 ft 413 kts 37°
2026-05-01 10:34 45.66032 10.37001 32416 ft 412 kts 37°
2026-05-01 10:34 45.70579 10.42303 32420 ft 412 kts 37°
2026-05-01 10:35 45.77193 10.50033 32420 ft 415 kts 38°
2026-05-01 10:35 45.81566 10.55155 32423 ft 418 kts 38°
2026-05-01 10:36 45.88181 10.62935 32420 ft 418 kts 38°
2026-05-01 10:37 45.99731 10.73988 32403 ft 417 kts 28°
2026-05-01 10:38 46.04800 10.77880 32402 ft 413 kts 28°
2026-05-01 10:38 46.09742 10.81678 32399 ft 411 kts 28°
2026-05-01 10:39 46.14592 10.85401 32399 ft 411 kts 28°
2026-05-01 10:39 46.19591 10.89249 32398 ft 411 kts 28°
2026-05-01 10:40 46.24632 10.93147 32398 ft 411 kts 28°
2026-05-01 10:40 46.29658 10.97045 32397 ft 415 kts 28°
2026-05-01 10:41 46.34732 11.00885 32397 ft 415 kts 25°
2026-05-01 10:42 46.42930 11.04805 32386 ft 417 kts 13°
2026-05-01 10:42 46.48692 11.05820 32379 ft 420 kts
2026-05-01 10:43 46.54530 11.05649 32375 ft 421 kts
2026-05-01 10:43 46.60379 11.05197 32373 ft 421 kts 360°
2026-05-01 10:44 46.66176 11.04754 32372 ft 421 kts 360°
2026-05-01 10:44 46.72022 11.04316 32372 ft 421 kts 360°
2026-05-01 10:45 46.77916 11.03874 32369 ft 422 kts 359°
2026-05-01 10:45 46.83776 11.02969 32371 ft 426 kts 355°
2026-05-01 10:46 46.89685 11.01872 32372 ft 425 kts 357°
2026-05-01 10:46 46.95599 11.01467 32066 ft 422 kts
2026-05-01 10:46 46.98564 11.01611 31811 ft 419 kts
2026-05-01 10:47 47.01433 11.01955 31562 ft 415 kts
2026-05-01 10:47 47.04289 11.02376 31312 ft 413 kts
2026-05-01 10:47 47.07136 11.02813 31062 ft 412 kts
2026-05-01 10:47 47.09987 11.03252 30811 ft 412 kts
2026-05-01 10:48 47.12358 11.03615 30604 ft 412 kts
2026-05-01 10:48 47.16084 11.04181 30276 ft 412 kts
2026-05-01 10:48 47.18937 11.04614 30025 ft 412 kts
2026-05-01 10:48 47.21773 11.05045 29776 ft 413 kts
2026-05-01 10:49 47.24637 11.05480 29524 ft 413 kts
2026-05-01 10:49 47.27470 11.05913 29123 ft 410 kts
2026-05-01 10:49 47.30253 11.06335 28038 ft 403 kts
2026-05-01 10:49 47.33012 11.06755 26248 ft 414 kts
2026-05-01 10:50 47.35841 11.07189 24552 ft 421 kts
2026-05-01 10:50 47.38729 11.07634 23507 ft 408 kts
2026-05-01 10:50 47.41456 11.08049 22433 ft 393 kts
2026-05-01 10:50 47.44127 11.08458 20829 ft 397 kts
2026-05-01 10:51 47.46868 11.08886 19588 ft 406 kts
2026-05-01 10:51 47.49638 11.09314 19062 ft 397 kts
2026-05-01 10:51 47.52351 11.09732 18469 ft 391 kts
2026-05-01 10:51 47.55037 11.10317 17895 ft 383 kts 15°
2026-05-01 10:52 47.57529 11.11466 17350 ft 375 kts 24°
2026-05-01 10:52 47.59844 11.13146 16811 ft 368 kts 31°
2026-05-01 10:52 47.62034 11.15023 16281 ft 364 kts 32°
2026-05-01 10:52 47.64217 11.16943 15750 ft 360 kts 32°
2026-05-01 10:53 47.66358 11.18823 15230 ft 357 kts 32°
2026-05-01 10:53 47.68490 11.20684 14715 ft 354 kts 31°
2026-05-01 10:53 47.70725 11.22122 14166 ft 355 kts 18°
2026-05-01 10:53 47.73105 11.22988 13645 ft 353 kts 14°
2026-05-01 10:54 47.75509 11.23751 13117 ft 350 kts 14°
2026-05-01 10:54 47.77871 11.24522 12565 ft 349 kts 14°
2026-05-01 10:54 47.80230 11.25327 12025 ft 346 kts 15°
2026-05-01 10:54 47.82563 11.26149 11535 ft 342 kts 15°
2026-05-01 10:55 47.84874 11.26980 11049 ft 339 kts 16°
2026-05-01 10:55 47.87154 11.27809 10767 ft 327 kts 16°
2026-05-01 10:55 47.89306 11.28594 10653 ft 312 kts 16°
2026-05-01 10:55 47.91352 11.29344 10542 ft 298 kts 16°
2026-05-01 10:56 47.93321 11.30067 10447 ft 284 kts 16°
2026-05-01 10:56 47.95177 11.30752 10259 ft 276 kts 17°
2026-05-01 10:56 47.97034 11.31440 9905 ft 275 kts 17°
2026-05-01 10:56 47.98890 11.32129 9568 ft 273 kts 17°
2026-05-01 10:57 48.00715 11.32805 9245 ft 271 kts 17°
2026-05-01 10:57 48.02553 11.33485 8926 ft 269 kts 17°
2026-05-01 10:57 48.04364 11.34156 8614 ft 267 kts 17°
2026-05-01 10:57 48.06149 11.34826 8306 ft 264 kts 18°
2026-05-01 10:58 48.07887 11.35607 8001 ft 261 kts 21°
2026-05-01 10:58 48.09595 11.36480 7696 ft 258 kts 22°
2026-05-01 10:58 48.11256 11.37344 7399 ft 255 kts 22°
2026-05-01 10:58 48.12873 11.38183 7110 ft 252 kts 22°
2026-05-01 10:59 48.14527 11.39042 6817 ft 250 kts 22°
2026-05-01 10:59 48.16161 11.39893 6549 ft 246 kts 22°
2026-05-01 10:59 48.17744 11.40717 6351 ft 240 kts 23°
2026-05-01 10:59 48.19315 11.41536 6150 ft 235 kts 23°
2026-05-01 11:00 48.20869 11.42350 6077 ft 236 kts 23°
2026-05-01 11:00 48.22407 11.43158 6020 ft 237 kts 23°
2026-05-01 11:00 48.23982 11.43984 5970 ft 236 kts 23°
2026-05-01 11:00 48.25490 11.44773 5883 ft 227 kts 23°
2026-05-01 11:01 48.26959 11.45536 5842 ft 216 kts 24°
2026-05-01 11:01 48.28368 11.46275 5723 ft 214 kts 24°
2026-05-01 11:01 48.29776 11.47017 5584 ft 213 kts 24°
2026-05-01 11:01 48.31179 11.47757 5330 ft 214 kts 25°
2026-05-01 11:02 48.32379 11.48901 5094 ft 202 kts 55°
2026-05-01 11:02 48.32875 11.50745 4901 ft 187 kts 89°
2026-05-01 11:02 48.32753 11.52618 4668 ft 174 kts 98°
2026-05-01 11:02 48.32639 11.54378 4290 ft 166 kts 93°
2026-05-01 11:03 48.32650 11.56088 3969 ft 163 kts 88°
2026-05-01 11:03 48.32756 11.57807 3760 ft 164 kts 85°
2026-05-01 11:03 48.32885 11.59450 3537 ft 154 kts 84°
2026-05-01 11:03 48.33005 11.60954 3323 ft 136 kts 84°
2026-05-01 11:04 48.33112 11.62342 3144 ft 132 kts 84°
2026-05-01 11:04 48.33215 11.63720 2974 ft 132 kts 84°
2026-05-01 11:04 48.33314 11.65056 2808 ft 132 kts 85°
2026-05-01 11:04 48.33415 11.66418 2639 ft 132 kts 85°
2026-05-01 11:05 48.33516 11.67780 2467 ft 132 kts 85°
2026-05-01 11:05 48.33620 11.69167 2292 ft 132 kts 84°
2026-05-01 11:05 48.33723 11.70526 2112 ft 126 kts 84°
2026-05-01 11:05 48.33819 11.71784 1935 ft 119 kts 84°
2026-05-01 11:06 48.33910 11.73013 1800 ft 119 kts 85°
2026-05-01 11:06 48.33998 11.74238 1644 ft 119 kts 84°
2026-05-01 11:06 48.34095 11.75474 1504 ft 118 kts 84°
2026-05-01 11:07 48.34234 11.77272 1484 ft 59 kts 84°
2026-05-01 11:07 48.34280 11.77867 1482 ft 53 kts 83°
2026-05-01 11:07 48.34320 11.78389 1480 ft 48 kts 84°
2026-05-01 11:07 48.34359 11.78864 1479 ft 43 kts 79°
2026-05-01 11:08 48.34466 11.79225 1477 ft 31 kts 54°
2026-05-01 11:08 48.34575 11.79444 1476 ft 10 kts 54°
2026-05-01 11:08 48.34651 11.79600 1475 ft 10 kts 51°
2026-05-01 11:09 48.34701 11.79696 1474 ft 12 kts 42°
2026-05-01 11:09 48.34785 11.79707 1474 ft 12 kts 355°
2026-05-01 11:09 48.34868 11.79693 1474 ft 12 kts 353°
2026-05-01 11:10 48.34924 11.79683 1474 ft 0 kts 354°
2026-05-01 11:10 48.34926 11.79683 1474 ft 1 kts 354°
2026-05-01 11:10 48.34940 11.79681 1474 ft 2 kts 354°
2026-05-01 11:10 48.34941 11.79681 1474 ft 0 kts 354°
2026-05-01 11:11 48.34942 11.79680 1474 ft 0 kts 354°
2026-05-01 11:11 48.34951 11.79679 1474 ft 2 kts 354°
2026-05-01 11:11 48.34978 11.79674 1474 ft 5 kts 354°
2026-05-01 11:11 48.35024 11.79668 1474 ft 8 kts 359°
2026-05-01 11:12 48.35072 11.79725 1473 ft 11 kts 81°
2026-05-01 11:12 48.35080 11.79856 1473 ft 13 kts 84°
2026-05-01 11:12 48.35091 11.79996 1473 ft 12 kts 83°
2026-05-01 11:12 48.35102 11.80141 1472 ft 14 kts 79°
2026-05-01 11:13 48.35192 11.80209 1472 ft 16 kts
2026-05-01 11:13 48.35314 11.80200 1471 ft 18 kts 352°
2026-05-01 11:13 48.35415 11.80170 1470 ft 14 kts 351°
2026-05-01 11:13 48.35519 11.80152 1470 ft 15 kts 354°
2026-05-01 11:14 48.35593 11.80124 1469 ft 5 kts 302°
2026-05-01 11:14 48.35595 11.80083 1469 ft 4 kts 262°
2026-05-01 11:14 48.35590 11.80030 1469 ft 5 kts 261°
2026-05-01 11:14 48.35587 11.79991 1469 ft 0 kts 263°
2026-05-01 11:15 48.35587 11.79990 1469 ft 0 kts 263°